| time (UTC) | temp C | wind direction | speed KPH | gust KPH | rain 1hr cm | rain 24hr cm | rain mn cm | humidity % | barometer mb |
| 20260508043009 | 6 | 212 | 0.0 | 0.0 | 0.00 | 0.64 | 0.00 | 84 | 1009.5 |
| 20260508041512 | 6 | 212 | 0.0 | 0.0 | 0.00 | 0.64 | 0.00 | 84 | 1009.3 |
| 20260508040005 | 6 | 212 | 0.0 | 0.0 | 0.00 | 0.64 | 0.64 | 83 | 1009.3 |
| 20260508034503 | 6 | 212 | 0.0 | 0.0 | 0.00 | 0.64 | 0.64 | 82 | 1009.3 |
| 20260508033003 | 6 | 212 | 0.0 | 0.0 | 0.00 | 0.64 | 0.64 | 81 | 1009.3 |
| 20260508031501 | 6 | 212 | 0.0 | 0.0 | 0.00 | 0.64 | 0.64 | 81 | 1009.3 |
| 20260508030109 | 6 | 212 | 0.0 | 0.0 | 0.00 | 0.64 | 0.64 | 81 | 1009.2 |
| 20260508024612 | 7 | 212 | 0.0 | 0.0 | 0.00 | 0.66 | 0.64 | 80 | 1009.1 |
| 20260508023055 | 7 | 212 | 0.0 | 0.0 | 0.00 | 0.66 | 0.64 | 79 | 1009.3 |
| 20260508021554 | 7 | 212 | 0.0 | 0.0 | 0.00 | 0.66 | 0.64 | 79 | 1009.4 |
| 20260508014549 | 8 | 212 | 0.0 | 0.0 | 0.00 | 0.66 | 0.64 | 76 | 1009.2 |
| 20260508013047 | 9 | 212 | 0.0 | 0.0 | 0.00 | 0.66 | 0.64 | 76 | 1009.0 |
| 20260508011550 | 10 | 212 | 0.0 | 0.0 | 0.00 | 0.66 | 0.64 | 74 | 1008.8 |
| 20260508010051 | 10 | 212 | 0.0 | 0.0 | 0.00 | 0.66 | 0.64 | 72 | 1008.8 |
| 20260508004548 | 11 | 212 | 0.0 | 0.0 | 0.00 | 0.66 | 0.64 | 71 | 1008.5 |
| 20260508003049 | 11 | 212 | 0.0 | 0.0 | 0.00 | 0.66 | 0.64 | 71 | 1008.3 |
| 20260508001546 | 12 | 212 | 0.0 | 0.0 | 0.00 | 0.66 | 0.64 | 67 | 1008.2 |
| 20260508000045 | 12 | 212 | 0.0 | 0.0 | 0.00 | 0.66 | 0.64 | 64 | 1008.0 |
| 20260507234545 | 13 | 212 | 0.0 | 0.0 | 0.00 | 0.66 | 0.64 | 62 | 1007.9 |
| 20260507233044 | 13 | 212 | 0.0 | 0.0 | 0.00 | 0.66 | 0.64 | 58 | 1007.9 |
| 20260507231546 | 14 | 212 | 0.0 | 0.0 | 0.00 | 0.66 | 0.64 | 57 | 1007.6 |
| 20260507230044 | 15 | 212 | 0.0 | 0.0 | 0.00 | 0.66 | 0.64 | 54 | 1007.6 |
| 20260507224545 | 16 | 212 | 0.0 | 0.0 | 0.00 | 0.66 | 0.64 | 51 | 1007.7 |
| 20260507223042 | 16 | 212 | 0.0 | 0.0 | 0.00 | 0.66 | 0.64 | 51 | 1007.7 |
| 20260507221542 | 16 | 215 | 0.0 | 0.0 | 0.00 | 0.66 | 0.64 | 47 | 1007.7 |
| 20260507220041 | 17 | 213 | 0.0 | 0.0 | 0.00 | 0.66 | 0.64 | 40 | 1007.7 |
| 20260507214546 | 17 | 222 | 0.0 | 0.0 | 0.00 | 0.66 | 0.64 | 35 | 1007.9 |
| 20260507213041 | 18 | 239 | 0.0 | 0.0 | 0.00 | 0.66 | 0.64 | 38 | 1007.7 |
| 20260507211543 | 18 | 282 | 0.0 | 0.0 | 0.00 | 0.66 | 0.64 | 39 | 1007.6 |
| 20260507210038 | 17 | 271 | 0.0 | 0.0 | 0.00 | 0.66 | 0.64 | 34 | 1007.4 |
| 20260507204538 | 17 | 205 | 0.0 | 0.0 | 0.00 | 0.66 | 0.64 | 35 | 1007.3 |
| 20260507203038 | 17 | 280 | 0.0 | 0.0 | 0.00 | 0.66 | 0.64 | 37 | 1007.5 |
| 20260507201535 | 17 | 72 | 0.0 | 0.0 | 0.00 | 0.66 | 0.64 | 35 | 1007.6 |
| 20260507200034 | 18 | 305 | 0.0 | 3.2 | 0.00 | 0.66 | 0.64 | 37 | 1007.8 |
| 20260507194533 | 18 | 270 | 0.0 | 0.0 | 0.00 | 0.66 | 0.64 | 32 | 1007.8 |
| 20260507193035 | 18 | 43 | 0.0 | 0.0 | 0.00 | 0.66 | 0.64 | 34 | 1008.0 |
| 20260507191529 | 18 | 146 | 0.0 | 0.0 | 0.00 | 0.66 | 0.64 | 34 | 1008.2 |
| 20260507190028 | 18 | 163 | 0.0 | 0.0 | 0.00 | 0.66 | 0.64 | 39 | 1008.3 |
| 20260507184525 | 17 | 287 | 0.0 | 0.0 | 0.00 | 0.69 | 0.64 | 36 | 1008.4 |
| 20260507183039 | 17 | 168 | 0.0 | 0.0 | 0.00 | 0.69 | 0.64 | 40 | 1008.6 |
| 20260507181521 | 17 | 316 | 0.0 | 0.0 | 0.00 | 0.69 | 0.64 | 42 | 1008.8 |
| 20260507180021 | 17 | 296 | 0.0 | 0.0 | 0.00 | 0.69 | 0.64 | 37 | 1008.8 |
| 20260507174519 | 17 | 55 | 0.0 | 0.0 | 0.00 | 0.71 | 0.64 | 41 | 1009.3 |
| 20260507173016 | 17 | 259 | 0.0 | 0.0 | 0.00 | 0.71 | 0.64 | 41 | 1009.5 |
| 20260507171514 | 16 | 271 | 0.0 | 0.0 | 0.00 | 0.71 | 0.64 | 47 | 1009.7 |
| 20260507170016 | 16 | 286 | 0.0 | 0.0 | 0.00 | 0.79 | 0.64 | 48 | 1009.8 |
| 20260507164512 | 16 | 268 | 0.0 | 0.0 | 0.00 | 0.79 | 0.64 | 45 | 1010.0 |
| 20260507163011 | 16 | 248 | 0.0 | 0.0 | 0.00 | 0.79 | 0.64 | 47 | 1010.2 |
| 20260507161509 | 16 | 261 | 0.0 | 0.0 | 0.00 | 0.79 | 0.64 | 50 | 1010.3 |
| 20260507160017 | 15 | 118 | 0.0 | 0.0 | 0.00 | 0.81 | 0.64 | 56 | 1010.5 |
| 20260507154502 | 15 | 190 | 0.0 | 0.0 | 0.00 | 0.81 | 0.64 | 52 | 1010.6 |
| 20260507153105 | 14 | 329 | 0.0 | 0.0 | 0.00 | 0.81 | 0.64 | 56 | 1011.1 |
| 20260507151558 | 14 | 252 | 0.0 | 0.0 | 0.00 | 0.81 | 0.64 | 58 | 1011.1 |
| 20260507150055 | 13 | 271 | 0.0 | 0.0 | 0.00 | 0.81 | 0.64 | 62 | 1011.2 |
| 20260507144553 | 13 | 16 | 1.6 | 6.4 | 0.00 | 0.81 | 0.64 | 68 | 1011.5 |
| 20260507143051 | 12 | 340 | 1.6 | 4.8 | 0.00 | 0.81 | 0.64 | 74 | 1011.7 |
| 20260507141548 | 12 | 273 | 1.6 | 9.7 | 0.00 | 0.81 | 0.64 | 76 | 1011.7 |
| 20260507140055 | 11 | 271 | 1.6 | 8.0 | 0.00 | 0.81 | 0.64 | 77 | 1011.8 |
| 20260507134543 | 11 | 202 | 0.0 | 4.8 | 0.00 | 0.81 | 0.64 | 83 | 1011.8 |
| 20260507133042 | 10 | 261 | 1.6 | 6.4 | 0.00 | 0.81 | 0.64 | 83 | 1011.8 |
| 20260507131541 | 10 | 210 | 0.0 | 4.8 | 0.00 | 0.81 | 0.64 | 85 | 1011.8 |
| 20260507130050 | 10 | 157 | 0.0 | 0.0 | 0.00 | 0.81 | 0.64 | 86 | 1011.9 |
| 20260507124551 | 9 | 157 | 0.0 | 0.0 | 0.00 | 0.81 | 0.64 | 86 | 1011.8 |
| 20260507123033 | 9 | 157 | 0.0 | 1.6 | 0.00 | 0.81 | 0.64 | 86 | 1011.7 |
| 20260507121530 | 9 | 153 | 0.0 | 4.8 | 0.00 | 0.81 | 0.64 | 86 | 1011.8 |
| 20260507120029 | 9 | 229 | 0.0 | 3.2 | 0.00 | 0.81 | 0.64 | 86 | 1011.8 |
| 20260507114529 | 9 | 233 | 0.0 | 1.6 | 0.00 | 0.81 | 0.64 | 86 | 1011.3 |
| 20260507113025 | 9 | 233 | 0.0 | 0.0 | 0.00 | 0.81 | 0.64 | 87 | 1011.3 |
| 20260507111524 | 9 | 233 | 0.0 | 0.0 | 0.00 | 0.81 | 0.64 | 86 | 1011.2 |
| 20260507110028 | 9 | 233 | 0.0 | 0.0 | 0.00 | 0.81 | 0.64 | 86 | 1010.8 |
| 20260507104519 | 8 | 233 | 0.0 | 0.0 | 0.00 | 0.81 | 0.64 | 86 | 1010.6 |
| 20260507103017 | 8 | 233 | 0.0 | 1.6 | 0.00 | 0.81 | 0.64 | 86 | 1010.5 |
| 20260507101514 | 8 | 233 | 0.0 | 0.0 | 0.00 | 0.81 | 0.64 | 86 | 1010.2 |
| 20260507100021 | 8 | 233 | 0.0 | 0.0 | 0.00 | 0.81 | 0.64 | 86 | 1010.3 |
| 20260507094511 | 8 | 233 | 0.0 | 0.0 | 0.00 | 0.81 | 0.64 | 86 | 1010.1 |
| 20260507093018 | 8 | 233 | 0.0 | 0.0 | 0.00 | 0.81 | 0.64 | 86 | 1010.1 |
| 20260507091518 | 8 | 233 | 0.0 | 1.6 | 0.03 | 0.81 | 0.64 | 86 | 1009.8 |
| 20260507090009 | 8 | 233 | 0.0 | 0.0 | 0.05 | 0.81 | 0.64 | 86 | 1009.9 |
| 20260507084509 | 9 | 233 | 0.0 | 0.0 | 0.10 | 0.81 | 0.64 | 85 | 1009.7 |
| 20260507083008 | 9 | 233 | 0.0 | 0.0 | 0.15 | 0.81 | 0.64 | 85 | 1009.9 |
| 20260507081506 | 9 | 233 | 0.0 | 0.0 | 0.13 | 0.79 | 0.61 | 86 | 1010.1 |
| 20260507080005 | 9 | 233 | 0.0 | 1.6 | 0.10 | 0.76 | 0.58 | 85 | 1010.3 |
| 20260507074505 | 9 | 233 | 0.0 | 3.2 | 0.10 | 0.71 | 0.53 | 85 | 1010.1 |
| 20260507073001 | 9 | 242 | 0.0 | 4.8 | 0.15 | 0.66 | 0.48 | 85 | 1010.4 |
| 20260507071559 | 10 | 108 | 1.6 | 8.0 | 0.15 | 0.66 | 0.48 | 85 | 1010.3 |
| 20260507070115 | 10 | 258 | 1.6 | 8.0 | 0.20 | 0.66 | 0.48 | 85 | 1010.4 |
| 20260507064605 | 10 | 294 | 0.0 | 3.2 | 0.23 | 0.61 | 0.43 | 85 | 1010.3 |
| 20260507063059 | 10 | 294 | 0.0 | 3.2 | 0.25 | 0.51 | 0.33 | 84 | 1010.0 |
| 20260507061553 | 10 | 211 | 0.0 | 3.2 | 0.30 | 0.51 | 0.33 | 84 | 1010.2 |
| 20260507060051 | 10 | 214 | 0.0 | 1.6 | 0.28 | 0.46 | 0.28 | 83 | 1009.8 |
| 20260507054553 | 11 | 214 | 0.0 | 6.4 | 0.18 | 0.36 | 0.18 | 83 | 1009.8 |
| 20260507053046 | 11 | 213 | 1.6 | 6.4 | 0.08 | 0.25 | 0.08 | 81 | 1009.7 |
| 20260507051543 | 12 | 102 | 0.0 | 6.4 | 0.03 | 0.20 | 0.03 | 78 | 1008.9 |
| 20260507050040 | 12 | 227 | 0.0 | 4.8 | 0.00 | 0.18 | 0.00 | 79 | 1008.8 |
| 20260507044542 | 12 | 263 | 0.0 | 3.2 | 0.00 | 0.18 | 0.00 | 80 | 1008.8 |